Regional Weather Roundup
Issued by NWS Burlington, VT

Home | Current Version | Previous Version | Text Only | Print | Product List | Glossary On
Versions: 1 2 3 4 5 6 7 8 9 10 11 12 13 14 15 16 17 18 19 20 21 22 23 24 25 26 27 28 29 30 31 32 33 34 35 36 37 38 39 40 41 42 43 44 45 46 47 48 49 50
000
ASUS41 KBTV 011230
RWRBTV
VERMONT REGIONAL WEATHER ROUNDUP
NATIONAL WEATHER SERVICE BURLINGTON VT
800 AM EDT SAT AUG 01 2015

NOTE: "FAIR" INDICATES FEW OR NO CLOUDS BELOW 12,000 FEET WITH NO
SIGNIFICANT WEATHER AND/OR OBSTRUCTIONS TO VISIBILITY.

* THESE REPORTS ARE NOT UNDER NWS QUALITY CONTROL AND/OR DO NOT
  REPORT WEATHER SUCH AS PRECIPITATION AND FOG.

VTZ001>019-011300-
_____VERMONT_____


CITY           SKY/WX    TMP DP  RH WIND       PRES   REMARKS
BURLINGTON     CLOUDY    69  60  73 S9        29.73R
6HR MIN TEMP:  66; 6HR MAX TEMP:  70; 6HR PCP:  0.01;

MONTPELIER     CLOUDY    61  60  97 NE6       29.78S
6HR MIN TEMP:  59; 6HR MAX TEMP:  65; 6HR PCP:  0.06;

MORRISVILLE    CLOUDY    64  59  83 CALM      29.75R
6HR MIN TEMP:  60; 6HR MAX TEMP:  64;

ST. JOHNSBURY*   N/A     62  57  83 MISG      29.72F
6HR MIN TEMP:  58; 6HR MAX TEMP:  62;

LYNDONVILLE*   CLOUDY    59  58  96 CALM      29.76S
6HR MIN TEMP:  56; 6HR MAX TEMP:  60;

MIDDLEBURY*    FAIR      70  61  74 S6        29.75S
6HR MIN TEMP:  62; 6HR MAX TEMP:  69;

SPRINGFIELD    MOSUNNY   61  58  90 CALM      29.77S
6HR MIN TEMP:  55; 6HR MAX TEMP:  61;

HIGHGATE*      CLOUDY    67  62  85 CALM      29.71S
6HR MIN TEMP:  64; 6HR MAX TEMP:  68;

NEWPORT*       CLOUDY    61  58  90 CALM      29.74R
6HR MIN TEMP:  58; 6HR MAX TEMP:  62;

BENNINGTON     CLOUDY    64  60  87 CALM      29.79S
6HR MIN TEMP:  57; 6HR MAX TEMP:  64; 6HR PCP: TRACE;

SUTTON*          N/A     59 N/A N/A MISG        N/A
GALLUP MILLS*    N/A     61 N/A N/A MISG        N/A
MT. MANSFIELD*   N/A     54 N/A N/A NW13G25     N/A

_____LAKE CHAMPLAIN_____


CITY           SKY/WX    TMP DP  RH WIND       PRES   REMARKS
COLCHESTER RF*   N/A     72  59  64 W12         N/A
DIAMOND ISL*     N/A     68  61  77 S3          N/A

$$

NYZ007-026>031-035-052-083-011300-
_____NORTHERN NEW YORK_____


CITY           SKY/WX    TMP DP  RH WIND       PRES   REMARKS
PLATTSBURGH    PTSUNNY   70  60  70 VRB6      29.72R
6HR MIN TEMP:  64; 6HR MAX TEMP:  71; 6HR PCP: TRACE;

SARANAC LAKE   CLOUDY    62  60  93 SW8       29.77R
6HR MIN TEMP:  58; 6HR MAX TEMP:  62; 6HR PCP:  0.04;

MASSENA        SUNNY     67  57  70 W8        29.74R
6HR MIN TEMP:  63; 6HR MAX TEMP:  67;

OGDENSBURG*    MOSUNNY   70  63  78 W3        29.75S
POTSDAM*       CLOUDY    66  66 100 W7        29.75R
STARK FALLS*     N/A     64 N/A N/A SW8         N/A
WATERTOWN      PTSUNNY   69  62  78 W12       29.78R
6HR MIN TEMP:  62; 6HR MAX TEMP:  67; 6HR PCP:  0.09;

FT DRUM        MOSUNNY   66  63  88 SW8       29.77R
6HR MIN TEMP:  62; 6HR MAX TEMP:  67; 6HR PCP:  0.07;

ALBANY         LGT RAIN  69  61  75 SE5       29.77F
6HR MIN TEMP:  64; 6HR MAX TEMP:  70; 6HR PCP: TRACE;

GLENS FALLS    CLOUDY    66  61  84 CALM      29.76R
6HR MIN TEMP:  60; 6HR MAX TEMP:  66; 6HR PCP: TRACE;


$$
NHZ002-005-011-011300-
_____NEW HAMPSHIRE_____


CITY           SKY/WX    TMP DP  RH WIND       PRES   REMARKS
LEBANON        SUNNY     66  59  78 W5        29.75S
6HR MIN TEMP:  57; 6HR MAX TEMP:  66;

KEENE          SUNNY     66  55  68 CALM      29.79R
6HR MIN TEMP:  55; 6HR MAX TEMP:  64;

MT WASHINGTON  FOG       46  46 100 W41G49      N/A  VSB 0
6HR MIN TEMP:  46; 6HR MAX TEMP:  47; 6HR PCP: TRACE;

PLYMOUTH       PTSUNNY   59  59 100 CALM      29.74F
6HR MIN TEMP:  55; 6HR MAX TEMP:  58;

WHITEFIELD     CLOUDY    61  56  83 CALM      29.75F
6HR MIN TEMP:  52; 6HR MAX TEMP:  61;


$$

_____REGIONAL QUEBEC LOCATIONS_____


CITY           SKY/WX    TMP DP  RH WIND       PRES   REMARKS
MONTREAL       MOSUNNY   66  61  82 SW10      29.70R
QUEBEC CITY    MOSUNNY   63  61  94 W5        29.67S
SHERBROOKE     PTSUNNY   64  59  82 VRB2      29.71F

_____REGIONAL ONTARIO LOCATIONS_____


CITY           SKY/WX    TMP DP  RH WIND       PRES   REMARKS
OTTAWA         PTSUNNY   64  55  72 W13G21    29.75R

______KEY______
VSB  - VISIBILITY IN MILES
WCI  - WIND CHILL INDEX
HX   - HEAT INDEX
$$
NNNN


USA.gov is the U.S. government's official web portal to all federal, state and local government web resources and services.